Year,Month,Day,Hour,Minute,Value (Times are PST for temperature in C)
2012,11,10,00,02,3.80
2012,11,10,00,03,3.90
2012,11,10,00,05,3.90
2012,11,10,00,06,3.90
2012,11,10,00,07,3.90
2012,11,10,00,08,4.00
2012,11,10,00,09,4.00
2012,11,10,00,10,4.00
2012,11,10,00,11,4.10
2012,11,10,00,12,4.10
2012,11,10,00,13,4.10
2012,11,10,00,14,4.10
2012,11,10,00,15,4.10
2012,11,10,00,16,4.10
2012,11,10,00,17,4.10
2012,11,10,00,18,4.10
2012,11,10,00,19,4.10
2012,11,10,00,20,4.10
2012,11,10,00,21,4.10
2012,11,10,00,22,4.10
2012,11,10,00,23,4.10
2012,11,10,00,24,4.10
2012,11,10,00,25,4.10
2012,11,10,00,26,4.10
2012,11,10,00,27,4.10
2012,11,10,00,28,4.10
2012,11,10,00,29,4.10
2012,11,10,00,30,4.10
2012,11,10,00,31,4.10
2012,11,10,00,32,4.10
2012,11,10,00,33,4.10
2012,11,10,00,34,4.10
2012,11,10,00,35,4.10
2012,11,10,00,36,4.10
2012,11,10,00,37,4.10
2012,11,10,00,38,4.10
2012,11,10,00,39,4.10
2012,11,10,00,40,4.10
2012,11,10,00,41,4.20
2012,11,10,00,42,4.10
2012,11,10,00,43,4.20
2012,11,10,00,44,4.20
2012,11,10,00,45,4.20
2012,11,10,00,47,4.20
2012,11,10,00,48,4.20
2012,11,10,00,49,4.10
2012,11,10,00,50,4.10
2012,11,10,00,51,4.10
2012,11,10,00,53,4.10
2012,11,10,00,54,4.10
2012,11,10,00,55,4.20
2012,11,10,00,56,4.20
2012,11,10,00,57,4.20
2012,11,10,00,58,4.20
2012,11,10,00,59,4.20
2012,11,10,01,00,4.20
2012,11,10,01,01,4.20
2012,11,10,01,03,4.20
2012,11,10,01,04,4.20
2012,11,10,01,05,4.20
2012,11,10,01,06,4.20
2012,11,10,01,07,4.20
2012,11,10,01,08,4.20
2012,11,10,01,09,4.20
2012,11,10,01,10,4.20
2012,11,10,01,12,4.20
2012,11,10,01,13,4.20
2012,11,10,01,14,4.20
2012,11,10,01,15,4.20
2012,11,10,01,16,4.20
2012,11,10,01,17,4.20
2012,11,10,01,18,4.20
2012,11,10,01,19,4.20
2012,11,10,01,20,4.20
2012,11,10,01,21,4.20
2012,11,10,01,22,4.20
2012,11,10,01,23,4.20
2012,11,10,01,24,4.20
2012,11,10,01,25,4.20
2012,11,10,01,26,4.20
2012,11,10,01,27,4.20
2012,11,10,01,28,4.20
2012,11,10,01,29,4.20
2012,11,10,01,30,4.20
2012,11,10,01,31,4.20
2012,11,10,01,32,4.20
2012,11,10,01,33,4.20
2012,11,10,01,35,4.20
2012,11,10,01,36,4.20
2012,11,10,01,37,4.20
2012,11,10,01,39,4.20
2012,11,10,01,40,4.30
2012,11,10,01,41,4.30
2012,11,10,01,42,4.30
2012,11,10,01,43,4.30
2012,11,10,01,44,4.30
2012,11,10,01,45,4.30
2012,11,10,01,46,4.30
2012,11,10,01,47,4.30
2012,11,10,01,49,4.40
2012,11,10,01,50,4.40
2012,11,10,01,51,4.40
2012,11,10,01,52,4.40
2012,11,10,01,54,4.40
2012,11,10,01,55,4.40
2012,11,10,01,56,4.40
2012,11,10,01,57,4.40
2012,11,10,01,59,4.40
2012,11,10,02,00,4.40
2012,11,10,02,01,4.40
2012,11,10,02,03,4.40
2012,11,10,02,04,4.40
2012,11,10,02,05,4.40
2012,11,10,02,06,4.40
2012,11,10,02,07,4.40
2012,11,10,02,09,4.40
2012,11,10,02,10,4.30
2012,11,10,02,11,4.30
2012,11,10,02,12,4.30
2012,11,10,02,14,4.30
2012,11,10,02,15,4.30
2012,11,10,02,16,4.30
2012,11,10,02,17,4.30
2012,11,10,02,19,4.30
2012,11,10,02,20,4.30
2012,11,10,02,21,4.30
2012,11,10,02,22,4.30
2012,11,10,02,23,4.30
2012,11,10,02,25,4.30
2012,11,10,02,26,4.30
2012,11,10,02,27,4.30
2012,11,10,02,28,4.30
2012,11,10,02,30,4.30
2012,11,10,02,31,4.30
2012,11,10,02,32,4.30
2012,11,10,02,33,4.30
2012,11,10,02,35,4.30
2012,11,10,02,36,4.30
2012,11,10,02,37,4.30
2012,11,10,02,38,4.30
2012,11,10,02,40,4.20
2012,11,10,02,41,4.20
2012,11,10,02,42,4.20
2012,11,10,02,43,4.20
2012,11,10,02,45,4.20
2012,11,10,02,46,4.20
2012,11,10,02,47,4.20
2012,11,10,02,48,4.10
2012,11,10,02,50,4.10
2012,11,10,02,51,4.10
2012,11,10,02,52,4.10
2012,11,10,02,54,4.10
2012,11,10,02,55,4.10
2012,11,10,02,56,4.00
2012,11,10,02,57,4.00
2012,11,10,02,59,4.00
2012,11,10,03,00,4.00
2012,11,10,03,01,4.00
2012,11,10,03,03,4.00
2012,11,10,03,04,4.00
2012,11,10,03,05,4.00
2012,11,10,03,06,4.00
2012,11,10,03,07,4.00
2012,11,10,03,09,4.00
2012,11,10,03,10,3.90
2012,11,10,03,11,3.90
2012,11,10,03,12,3.90
2012,11,10,03,14,3.90
2012,11,10,03,15,3.90
2012,11,10,03,16,3.90
2012,11,10,03,17,3.90
2012,11,10,03,19,3.90
2012,11,10,03,20,3.90
2012,11,10,03,21,3.90
2012,11,10,03,23,3.90
2012,11,10,03,24,3.90
2012,11,10,03,25,3.90
2012,11,10,03,26,3.90
2012,11,10,03,27,3.80
2012,11,10,03,29,3.90
2012,11,10,03,30,3.80
2012,11,10,03,31,3.80
2012,11,10,03,32,3.80
2012,11,10,03,34,3.80
2012,11,10,03,35,3.80
2012,11,10,03,36,3.80
2012,11,10,03,37,3.80
2012,11,10,03,38,3.80
2012,11,10,03,40,3.80
2012,11,10,03,41,3.80
2012,11,10,03,42,3.80
2012,11,10,03,44,3.80
2012,11,10,03,45,3.80
2012,11,10,03,46,3.80
2012,11,10,03,47,3.80
2012,11,10,03,48,3.80
2012,11,10,03,49,3.80
2012,11,10,03,51,3.80
2012,11,10,03,52,3.80
2012,11,10,03,53,3.80
2012,11,10,03,54,3.80
2012,11,10,03,56,3.80
2012,11,10,03,57,3.80
2012,11,10,03,58,3.80
2012,11,10,03,59,3.80
2012,11,10,04,01,3.80
2012,11,10,04,02,3.80
2012,11,10,04,03,3.80
2012,11,10,04,05,3.80
2012,11,10,04,06,3.80
2012,11,10,04,07,3.80
2012,11,10,04,08,3.80
2012,11,10,04,10,3.80
2012,11,10,04,11,3.80
2012,11,10,04,12,3.80
2012,11,10,04,13,3.80
2012,11,10,04,15,3.80
2012,11,10,04,16,3.80
2012,11,10,04,17,3.80
2012,11,10,04,18,3.80
2012,11,10,04,20,3.80
2012,11,10,04,21,3.80
2012,11,10,04,22,3.80
2012,11,10,04,23,3.80
2012,11,10,04,25,3.80
2012,11,10,04,26,3.80
2012,11,10,04,27,3.80
2012,11,10,04,28,3.80
2012,11,10,04,30,3.80
2012,11,10,04,31,3.80
2012,11,10,04,32,3.80
2012,11,10,04,33,3.80
2012,11,10,04,34,3.80
2012,11,10,04,35,3.80
2012,11,10,04,36,3.80
2012,11,10,04,37,3.80
2012,11,10,04,38,3.80
2012,11,10,04,39,3.80
2012,11,10,04,40,3.80
2012,11,10,04,41,3.80
2012,11,10,04,42,3.80
2012,11,10,04,43,3.80
2012,11,10,04,44,3.80
2012,11,10,04,45,3.80
2012,11,10,04,46,3.80
2012,11,10,04,47,3.90
2012,11,10,04,48,3.90
2012,11,10,04,49,3.90
2012,11,10,04,50,3.90
2012,11,10,04,51,3.90
2012,11,10,04,52,3.80
2012,11,10,04,53,3.80
2012,11,10,04,54,3.80
2012,11,10,04,55,3.80
2012,11,10,04,56,3.80
2012,11,10,04,57,3.80
2012,11,10,04,58,3.80
2012,11,10,04,59,3.80
2012,11,10,05,00,3.80
2012,11,10,05,02,3.80
2012,11,10,05,03,3.80
2012,11,10,05,04,3.80
2012,11,10,05,05,3.80
2012,11,10,05,06,3.80
2012,11,10,05,07,3.80
2012,11,10,05,08,3.80
2012,11,10,05,09,3.70
2012,11,10,05,10,3.70
2012,11,10,05,11,3.70
2012,11,10,05,12,3.70
2012,11,10,05,13,3.70
2012,11,10,05,14,3.70
2012,11,10,05,15,3.70
2012,11,10,05,16,3.70
2012,11,10,05,17,3.70
2012,11,10,05,18,3.60
2012,11,10,05,19,3.60
2012,11,10,05,20,3.60
2012,11,10,05,21,3.60
2012,11,10,05,22,3.60
2012,11,10,05,23,3.60
2012,11,10,05,24,3.60
2012,11,10,05,25,3.60
2012,11,10,05,26,3.60
2012,11,10,05,28,3.60
2012,11,10,05,29,3.60
2012,11,10,05,30,3.50
2012,11,10,05,31,3.50
2012,11,10,05,32,3.50
2012,11,10,05,33,3.50
2012,11,10,05,34,3.50
2012,11,10,05,35,3.50
2012,11,10,05,36,3.50
2012,11,10,05,37,3.50
2012,11,10,05,38,3.40
2012,11,10,05,39,3.40
2012,11,10,05,40,3.40
2012,11,10,05,41,3.40
2012,11,10,05,42,3.40
2012,11,10,05,43,3.40
2012,11,10,05,44,3.40
2012,11,10,05,45,3.40
2012,11,10,05,47,3.40
2012,11,10,05,48,3.40
2012,11,10,05,49,3.40
2012,11,10,05,50,3.30
2012,11,10,05,51,3.30
2012,11,10,05,52,3.30
2012,11,10,05,53,3.30
2012,11,10,05,54,3.30
2012,11,10,05,55,3.30
2012,11,10,05,56,3.30
2012,11,10,05,57,3.20
2012,11,10,05,58,3.20
2012,11,10,05,59,3.20
2012,11,10,06,00,3.20
2012,11,10,06,01,3.20
2012,11,10,06,02,3.20
2012,11,10,06,03,3.20
2012,11,10,06,04,3.20
2012,11,10,06,05,3.20
2012,11,10,06,06,3.20
2012,11,10,06,07,3.10
2012,11,10,06,08,3.10
2012,11,10,06,09,3.10
2012,11,10,06,10,3.10
2012,11,10,06,11,3.10
2012,11,10,06,12,3.10
2012,11,10,06,13,3.10
2012,11,10,06,14,3.10
2012,11,10,06,15,3.00
2012,11,10,06,16,3.00
2012,11,10,06,17,3.00
2012,11,10,06,18,3.00
2012,11,10,06,19,3.00
2012,11,10,06,20,3.00
2012,11,10,06,22,3.00
2012,11,10,06,23,2.90
2012,11,10,06,24,2.90
2012,11,10,06,25,2.90
2012,11,10,06,27,2.90
2012,11,10,06,28,2.90
2012,11,10,06,29,2.90
2012,11,10,06,30,2.90
2012,11,10,06,31,2.90
2012,11,10,06,32,2.90
2012,11,10,06,33,2.90
2012,11,10,06,34,2.90
2012,11,10,06,35,2.90
2012,11,10,06,36,2.90
2012,11,10,06,37,2.90
2012,11,10,06,38,2.90
2012,11,10,06,39,2.90
2012,11,10,06,40,2.90
2012,11,10,06,41,2.90
2012,11,10,06,42,2.80
2012,11,10,06,43,2.90
2012,11,10,06,44,2.80
2012,11,10,06,45,2.80
2012,11,10,06,46,2.80
2012,11,10,06,47,2.80
2012,11,10,06,48,2.80
2012,11,10,06,49,2.80
2012,11,10,06,50,2.80
2012,11,10,06,51,2.80
2012,11,10,06,53,2.80
2012,11,10,06,54,2.80
2012,11,10,06,55,2.80
2012,11,10,06,56,2.80
2012,11,10,06,57,2.80
2012,11,10,06,58,2.80
2012,11,10,06,59,2.80
2012,11,10,07,00,2.70
2012,11,10,07,02,2.70
2012,11,10,07,03,2.70
2012,11,10,07,04,2.70
2012,11,10,07,05,2.70
2012,11,10,07,06,2.70
2012,11,10,07,07,2.70
2012,11,10,07,08,2.60
2012,11,10,07,09,2.60
2012,11,10,07,10,2.60
2012,11,10,07,12,2.60
2012,11,10,07,13,2.60
2012,11,10,07,14,2.50
2012,11,10,07,15,2.50
2012,11,10,07,16,2.40
2012,11,10,07,17,2.40
2012,11,10,07,18,2.40
2012,11,10,07,19,2.40
2012,11,10,07,20,2.40
2012,11,10,07,21,2.40
2012,11,10,07,23,2.40
2012,11,10,07,24,2.40
2012,11,10,07,25,2.40
2012,11,10,07,26,2.40
2012,11,10,07,27,2.40
2012,11,10,07,28,2.40
2012,11,10,07,29,2.50
2012,11,10,07,30,2.50
2012,11,10,07,31,2.60
2012,11,10,07,33,2.60
2012,11,10,07,34,2.60
2012,11,10,07,35,2.60
2012,11,10,07,36,2.60
2012,11,10,07,38,2.60
2012,11,10,07,39,2.60
2012,11,10,07,40,2.60
2012,11,10,07,41,2.50
2012,11,10,07,42,2.50
2012,11,10,07,43,2.50
2012,11,10,07,44,2.50
2012,11,10,07,45,2.50
2012,11,10,07,46,2.50
2012,11,10,07,47,2.50
2012,11,10,07,48,2.50
2012,11,10,07,49,2.50
2012,11,10,07,50,2.50
2012,11,10,07,51,2.50
2012,11,10,07,53,2.50
2012,11,10,07,54,2.50
2012,11,10,07,55,2.50
2012,11,10,07,56,2.50
2012,11,10,07,57,2.50
2012,11,10,07,58,2.60
2012,11,10,07,59,2.60
2012,11,10,08,00,2.60
2012,11,10,08,01,2.60
2012,11,10,08,02,2.60
2012,11,10,08,03,2.60
2012,11,10,08,04,2.70
2012,11,10,08,05,2.70
2012,11,10,08,07,2.70
2012,11,10,08,08,2.70
2012,11,10,08,09,2.70
2012,11,10,08,10,2.80
2012,11,10,08,11,2.80
2012,11,10,08,12,2.80
2012,11,10,08,13,2.80
2012,11,10,08,14,2.90
2012,11,10,08,15,2.90
2012,11,10,08,16,2.90
2012,11,10,08,17,2.90
2012,11,10,08,18,2.90
2012,11,10,08,19,2.90
2012,11,10,08,20,3.00
2012,11,10,08,21,3.00
2012,11,10,08,22,3.10
2012,11,10,08,23,3.10
2012,11,10,08,24,3.20
2012,11,10,08,26,3.20
2012,11,10,08,27,3.20
2012,11,10,08,28,3.30
2012,11,10,08,29,3.30
2012,11,10,08,31,3.30
2012,11,10,08,32,3.30
2012,11,10,08,33,3.30
2012,11,10,08,34,3.40
2012,11,10,08,35,3.40
2012,11,10,08,37,3.40
2012,11,10,08,38,3.50
2012,11,10,08,39,3.60
2012,11,10,08,40,3.60
2012,11,10,08,41,3.60
2012,11,10,08,43,3.70
2012,11,10,08,44,3.70
2012,11,10,08,45,3.80
2012,11,10,08,46,3.80
2012,11,10,08,48,3.90
2012,11,10,08,49,3.90
2012,11,10,08,50,4.00
2012,11,10,08,51,4.00
2012,11,10,08,52,4.10
2012,11,10,08,54,4.10
2012,11,10,08,55,4.10
2012,11,10,08,56,4.20
2012,11,10,08,58,4.20
2012,11,10,08,59,4.10
2012,11,10,09,00,4.10
2012,11,10,09,01,4.10
2012,11,10,09,03,4.10
2012,11,10,09,04,4.10
2012,11,10,09,05,4.20
2012,11,10,09,06,4.20
2012,11,10,09,08,4.20
2012,11,10,09,09,4.20
2012,11,10,09,10,4.20
2012,11,10,09,11,4.20
2012,11,10,09,13,4.20
2012,11,10,09,14,4.20
2012,11,10,09,15,4.20
2012,11,10,09,16,4.20
2012,11,10,09,18,4.30
2012,11,10,09,19,4.30
2012,11,10,09,20,4.30
2012,11,10,09,21,4.30
2012,11,10,09,23,4.40
2012,11,10,09,24,4.40
2012,11,10,09,25,4.50
2012,11,10,09,26,4.50
2012,11,10,09,28,4.50
2012,11,10,09,29,4.40
2012,11,10,09,30,4.40
2012,11,10,09,31,4.40
2012,11,10,09,32,4.40
2012,11,10,09,33,4.40
2012,11,10,09,34,4.30
2012,11,10,09,35,4.30
2012,11,10,09,36,4.30
2012,11,10,09,37,4.30
2012,11,10,09,38,4.40
2012,11,10,09,39,4.40
2012,11,10,09,41,4.30
2012,11,10,09,42,4.30
2012,11,10,09,43,4.30
2012,11,10,09,45,4.30
2012,11,10,09,46,4.30
2012,11,10,09,47,4.30
2012,11,10,09,48,4.30
2012,11,10,09,49,4.30
2012,11,10,09,51,4.30
2012,11,10,09,52,4.30
2012,11,10,09,53,4.30
2012,11,10,09,55,4.30
2012,11,10,09,56,4.20
2012,11,10,09,57,4.20
2012,11,10,09,58,4.20
2012,11,10,09,59,4.20
2012,11,10,10,00,4.20
2012,11,10,10,01,4.10
2012,11,10,10,02,4.10
2012,11,10,10,03,4.20
2012,11,10,10,04,4.20
2012,11,10,10,05,4.20
2012,11,10,10,06,4.20
2012,11,10,10,07,4.30
2012,11,10,10,08,4.30
2012,11,10,10,09,4.40
2012,11,10,10,10,4.40
2012,11,10,10,11,4.40
2012,11,10,10,12,4.50
2012,11,10,10,13,4.50
2012,11,10,10,14,4.60
2012,11,10,10,15,4.60
2012,11,10,10,16,4.60
2012,11,10,10,17,4.60
2012,11,10,10,19,4.60
2012,11,10,10,20,4.70
2012,11,10,10,21,4.70
2012,11,10,10,22,4.70
2012,11,10,10,23,4.70
2012,11,10,10,24,4.80
2012,11,10,10,25,4.80
2012,11,10,10,26,4.80
2012,11,10,10,27,4.80
2012,11,10,10,28,4.90
2012,11,10,10,30,4.90
2012,11,10,10,31,4.90
2012,11,10,10,32,5.00
2012,11,10,10,33,5.00
2012,11,10,10,34,5.00
2012,11,10,10,35,5.00
2012,11,10,10,36,5.00
2012,11,10,10,37,5.00
2012,11,10,10,38,5.00
2012,11,10,10,39,5.00
2012,11,10,10,40,5.00
2012,11,10,10,41,4.90
2012,11,10,10,42,4.90
2012,11,10,10,43,4.90
2012,11,10,10,45,4.90
2012,11,10,10,46,5.00
2012,11,10,10,47,5.00
2012,11,10,10,48,5.10
2012,11,10,10,49,5.10
2012,11,10,10,50,5.10
2012,11,10,10,51,5.10
2012,11,10,10,52,5.20
2012,11,10,10,53,5.20
2012,11,10,10,54,5.20
2012,11,10,10,55,5.20
2012,11,10,10,56,5.20
2012,11,10,10,57,5.20
2012,11,10,10,58,5.20
2012,11,10,10,59,5.20
2012,11,10,11,00,5.20
2012,11,10,11,01,5.20
2012,11,10,11,02,5.10
2012,11,10,11,03,5.10
2012,11,10,11,04,5.00
2012,11,10,11,05,5.00
2012,11,10,11,06,5.00
2012,11,10,11,07,5.10
2012,11,10,11,08,5.10
2012,11,10,11,09,5.10
2012,11,10,11,10,5.20
2012,11,10,11,11,5.20
2012,11,10,11,12,5.20
2012,11,10,11,13,5.20
2012,11,10,11,14,5.20
2012,11,10,11,15,5.20
2012,11,10,11,16,5.20
2012,11,10,11,17,5.20
2012,11,10,11,18,5.30
2012,11,10,11,20,5.30
2012,11,10,11,21,5.30
2012,11,10,11,22,5.40
2012,11,10,11,23,5.40
2012,11,10,11,24,5.40
2012,11,10,11,25,5.40
2012,11,10,11,26,5.50
2012,11,10,11,27,5.40
2012,11,10,11,28,5.30
2012,11,10,11,29,5.30
2012,11,10,11,30,5.20
2012,11,10,11,31,5.10
2012,11,10,11,32,5.10
2012,11,10,11,33,5.10
2012,11,10,11,35,5.10
2012,11,10,11,36,5.20
2012,11,10,11,37,5.20
2012,11,10,11,38,5.20
2012,11,10,11,40,5.30
2012,11,10,11,41,5.30
2012,11,10,11,42,5.40
2012,11,10,11,43,5.50
2012,11,10,11,45,5.60
2012,11,10,11,46,5.60
2012,11,10,11,47,5.60
2012,11,10,11,48,5.60
2012,11,10,11,50,5.60
2012,11,10,11,51,5.50
2012,11,10,11,52,5.40
2012,11,10,11,53,5.40
2012,11,10,11,55,5.30
2012,11,10,11,56,5.40
2012,11,10,11,57,5.40
2012,11,10,11,58,5.50
2012,11,10,12,00,5.50
2012,11,10,12,01,5.60
2012,11,10,12,02,5.60
2012,11,10,12,03,5.60
2012,11,10,12,04,5.60
2012,11,10,12,06,5.60
2012,11,10,12,07,5.60
2012,11,10,12,08,5.60
2012,11,10,12,09,5.40
2012,11,10,12,10,5.40
2012,11,10,12,11,5.40
2012,11,10,12,12,5.40
2012,11,10,12,13,5.50
2012,11,10,12,15,5.50
2012,11,10,12,16,5.50
2012,11,10,12,17,5.50
2012,11,10,12,18,5.50
2012,11,10,12,20,5.50
2012,11,10,12,21,5.50
2012,11,10,12,22,5.60
2012,11,10,12,23,5.60
2012,11,10,12,25,5.60
2012,11,10,12,26,5.50
2012,11,10,12,27,5.50
2012,11,10,12,28,5.60
2012,11,10,12,30,5.60
2012,11,10,12,31,5.60
2012,11,10,12,32,5.60
2012,11,10,12,33,5.60
2012,11,10,12,34,5.60
2012,11,10,12,36,5.60
2012,11,10,12,37,5.60
2012,11,10,12,38,5.60
2012,11,10,12,39,5.60
2012,11,10,12,40,5.60
2012,11,10,12,41,5.60
2012,11,10,12,42,5.60
2012,11,10,12,43,5.60
2012,11,10,12,45,5.70
2012,11,10,12,46,5.70
2012,11,10,12,47,5.70
2012,11,10,12,48,5.70
2012,11,10,12,49,5.80
2012,11,10,12,50,5.80
2012,11,10,12,51,5.70
2012,11,10,12,52,5.70
2012,11,10,12,54,5.80
2012,11,10,12,55,5.80
2012,11,10,12,56,5.80
2012,11,10,12,57,5.80
2012,11,10,12,59,5.80
2012,11,10,13,00,5.80
2012,11,10,13,01,5.90
2012,11,10,13,02,5.90
2012,11,10,13,04,5.80
2012,11,10,13,05,5.80
2012,11,10,13,06,5.80
2012,11,10,13,07,5.80
2012,11,10,13,09,5.80
2012,11,10,13,10,5.80
2012,11,10,13,11,5.80
2012,11,10,13,12,5.80
2012,11,10,13,13,5.80
2012,11,10,13,14,5.80
2012,11,10,13,15,5.80
2012,11,10,13,16,5.80
2012,11,10,13,17,5.80
2012,11,10,13,18,5.80
2012,11,10,13,19,5.80
2012,11,10,13,20,5.80
2012,11,10,13,22,5.80
2012,11,10,13,23,5.80
2012,11,10,13,24,5.80
2012,11,10,13,25,5.80
2012,11,10,13,27,5.80
2012,11,10,13,28,5.70
2012,11,10,13,29,5.70
2012,11,10,13,30,5.70
2012,11,10,13,31,5.70
2012,11,10,13,33,5.70
2012,11,10,13,34,5.70
2012,11,10,13,35,5.70
2012,11,10,13,36,5.70
2012,11,10,13,37,5.70
2012,11,10,13,38,5.70
2012,11,10,13,39,5.70
2012,11,10,13,40,5.80
2012,11,10,13,41,5.80
2012,11,10,13,42,5.80
2012,11,10,13,43,5.80
2012,11,10,13,44,5.80
2012,11,10,13,45,5.90
2012,11,10,13,46,5.90
2012,11,10,13,47,6.00
2012,11,10,13,48,6.00
2012,11,10,13,49,6.00
2012,11,10,13,50,5.90
2012,11,10,13,51,5.90
2012,11,10,13,53,5.90
2012,11,10,13,54,6.00
2012,11,10,13,55,6.00
2012,11,10,13,56,6.00
2012,11,10,13,57,6.00
2012,11,10,13,58,6.00
2012,11,10,13,59,6.00
2012,11,10,14,00,6.00
2012,11,10,14,01,6.10
2012,11,10,14,02,6.10
2012,11,10,14,03,6.10
2012,11,10,14,04,6.10
2012,11,10,14,05,6.10
2012,11,10,14,06,6.10
2012,11,10,14,07,6.10
2012,11,10,14,09,6.10
2012,11,10,14,10,6.10
2012,11,10,14,11,6.10
2012,11,10,14,12,6.00
2012,11,10,14,14,5.90
2012,11,10,14,15,5.90
2012,11,10,14,16,5.80
2012,11,10,14,17,5.90
2012,11,10,14,18,5.90
2012,11,10,14,19,5.90
2012,11,10,14,20,5.90
2012,11,10,14,21,6.00
2012,11,10,14,22,6.10
2012,11,10,14,23,6.10
2012,11,10,14,24,6.00
2012,11,10,14,25,6.10
2012,11,10,14,26,6.10
2012,11,10,14,27,6.10
2012,11,10,14,28,6.10
2012,11,10,14,29,6.10
2012,11,10,14,30,6.10
2012,11,10,14,31,6.10
2012,11,10,14,33,6.10
2012,11,10,14,34,6.20
2012,11,10,14,35,6.20
2012,11,10,14,36,6.20
2012,11,10,14,38,6.20
2012,11,10,14,39,6.10
2012,11,10,14,40,6.10
2012,11,10,14,41,6.00
2012,11,10,14,43,6.00
2012,11,10,14,44,6.10
2012,11,10,14,45,6.10
2012,11,10,14,46,6.10
2012,11,10,14,48,6.10
2012,11,10,14,49,6.00
2012,11,10,14,50,6.10
2012,11,10,14,51,6.10
2012,11,10,14,53,6.10
2012,11,10,14,54,6.10
2012,11,10,14,55,6.10
2012,11,10,14,56,6.20
2012,11,10,14,58,6.20
2012,11,10,14,59,6.10
2012,11,10,15,00,6.10
2012,11,10,15,01,6.10
2012,11,10,15,03,6.10
2012,11,10,15,04,6.20
2012,11,10,15,05,6.30
2012,11,10,15,06,6.30
2012,11,10,15,08,6.30
2012,11,10,15,09,6.40
2012,11,10,15,10,6.50
2012,11,10,15,11,6.60
2012,11,10,15,13,6.60
2012,11,10,15,14,6.60
2012,11,10,15,15,6.60
2012,11,10,15,17,6.60
2012,11,10,15,18,6.60
2012,11,10,15,19,6.60
2012,11,10,15,20,6.70
2012,11,10,15,22,6.60
2012,11,10,15,23,6.50
2012,11,10,15,24,6.40
2012,11,10,15,25,6.40
2012,11,10,15,27,6.40
2012,11,10,15,28,6.30
2012,11,10,15,29,6.30
2012,11,10,15,30,6.20
2012,11,10,15,32,6.20
2012,11,10,15,33,6.10
2012,11,10,15,34,6.00
2012,11,10,15,35,6.00
2012,11,10,15,37,5.90
2012,11,10,15,38,5.90
2012,11,10,15,39,5.90
2012,11,10,15,41,5.90
2012,11,10,15,42,5.90
2012,11,10,15,43,5.90
2012,11,10,15,44,5.90
2012,11,10,15,46,5.90
2012,11,10,15,47,5.80
2012,11,10,15,48,5.80
2012,11,10,15,50,5.80
2012,11,10,15,51,5.80
2012,11,10,15,52,5.80
2012,11,10,15,53,5.80
2012,11,10,15,54,5.80
2012,11,10,15,56,5.80
2012,11,10,15,57,5.80
2012,11,10,15,58,5.80
2012,11,10,15,59,5.80
2012,11,10,16,01,5.80
2012,11,10,16,02,5.80
2012,11,10,16,03,5.90
2012,11,10,16,04,5.90
2012,11,10,16,05,5.90
2012,11,10,16,06,5.90
2012,11,10,16,07,5.90
2012,11,10,16,08,5.90
2012,11,10,16,10,5.90
2012,11,10,16,11,5.90
2012,11,10,16,12,5.80
2012,11,10,16,13,5.80
2012,11,10,16,14,5.80
2012,11,10,16,15,5.80
2012,11,10,16,16,5.70
2012,11,10,16,17,5.70
2012,11,10,16,18,5.70
2012,11,10,16,19,5.70
2012,11,10,16,20,5.60
2012,11,10,16,21,5.60
2012,11,10,16,22,5.60
2012,11,10,16,24,5.50
2012,11,10,16,25,5.40
2012,11,10,16,26,5.40
2012,11,10,16,27,5.30
2012,11,10,16,29,5.30
2012,11,10,16,30,5.30
2012,11,10,16,31,5.30
2012,11,10,16,32,5.30
2012,11,10,16,33,5.20
2012,11,10,16,34,5.20
2012,11,10,16,35,5.20
2012,11,10,16,36,5.10
2012,11,10,16,37,5.10
2012,11,10,16,38,5.10
2012,11,10,16,39,5.10
2012,11,10,16,40,5.00
2012,11,10,16,41,4.90
2012,11,10,16,43,4.90
2012,11,10,16,44,4.80
2012,11,10,16,45,4.80
2012,11,10,16,46,4.70
2012,11,10,16,48,4.70
2012,11,10,16,49,4.60
2012,11,10,16,50,4.60
2012,11,10,16,51,4.60
2012,11,10,16,53,4.50
2012,11,10,16,54,4.50
2012,11,10,16,55,4.40
2012,11,10,16,56,4.40
2012,11,10,16,58,4.40
2012,11,10,16,59,4.40
2012,11,10,17,00,4.30
2012,11,10,17,01,4.30
2012,11,10,17,02,4.30
2012,11,10,17,03,4.30
2012,11,10,17,04,4.30
2012,11,10,17,05,4.30
2012,11,10,17,07,4.30
2012,11,10,17,08,4.30
2012,11,10,17,09,4.30
2012,11,10,17,10,4.20
2012,11,10,17,11,4.20
2012,11,10,17,12,4.20
2012,11,10,17,13,4.20
2012,11,10,17,14,4.10
2012,11,10,17,15,4.10
2012,11,10,17,17,4.10
2012,11,10,17,18,3.90
2012,11,10,17,19,3.90
2012,11,10,17,20,3.80
2012,11,10,17,21,3.80
2012,11,10,17,22,3.80
2012,11,10,17,23,3.70
2012,11,10,17,24,3.70
2012,11,10,17,25,3.70
2012,11,10,17,26,3.60
2012,11,10,17,27,3.60
2012,11,10,17,28,3.50
2012,11,10,17,29,3.50
2012,11,10,17,30,3.40
2012,11,10,17,31,3.40
2012,11,10,17,32,3.40
2012,11,10,17,33,3.40
2012,11,10,17,34,3.40
2012,11,10,17,35,3.40
2012,11,10,17,36,3.40
2012,11,10,17,37,3.30
2012,11,10,17,38,3.30
2012,11,10,17,39,3.30
2012,11,10,17,40,3.30
2012,11,10,17,41,3.30
2012,11,10,17,42,3.30
2012,11,10,17,43,3.30
2012,11,10,17,44,3.30
2012,11,10,17,46,3.30
2012,11,10,17,47,3.30
2012,11,10,17,48,3.20
2012,11,10,17,49,3.20
2012,11,10,17,50,3.20
2012,11,10,17,51,3.20
2012,11,10,17,52,3.20
2012,11,10,17,53,3.20
2012,11,10,17,54,3.20
2012,11,10,17,55,3.10
2012,11,10,17,56,3.10
2012,11,10,17,57,3.10
2012,11,10,17,58,3.10
2012,11,10,17,59,3.10
2012,11,10,18,00,3.10
2012,11,10,18,01,3.10
2012,11,10,18,02,3.10
2012,11,10,18,04,3.10
2012,11,10,18,05,3.10
2012,11,10,18,06,3.10
2012,11,10,18,07,3.10
2012,11,10,18,08,3.10
2012,11,10,18,09,3.00
2012,11,10,18,10,3.00
2012,11,10,18,11,2.90
2012,11,10,18,12,2.90
2012,11,10,18,13,2.80
2012,11,10,18,14,2.80
2012,11,10,18,15,2.80
2012,11,10,18,16,2.70
2012,11,10,18,17,2.70
2012,11,10,18,18,2.70
2012,11,10,18,19,2.60
2012,11,10,18,20,2.60
2012,11,10,18,21,2.60
2012,11,10,18,22,2.50
2012,11,10,18,23,2.50
2012,11,10,18,24,2.50
2012,11,10,18,25,2.40
2012,11,10,18,26,2.40
2012,11,10,18,27,2.40
2012,11,10,18,28,2.40
2012,11,10,18,30,2.40
2012,11,10,18,31,2.40
2012,11,10,18,32,2.40
2012,11,10,18,33,2.40
2012,11,10,18,34,2.30
2012,11,10,18,35,2.30
2012,11,10,18,36,2.30
2012,11,10,18,37,2.30
2012,11,10,18,38,2.30
2012,11,10,18,39,2.20
2012,11,10,18,40,2.20
2012,11,10,18,41,2.20
2012,11,10,18,42,2.10
2012,11,10,18,43,2.10
2012,11,10,18,44,2.10
2012,11,10,18,45,2.10
2012,11,10,18,46,2.10
2012,11,10,18,47,2.10
2012,11,10,18,48,2.10
2012,11,10,18,49,2.10
2012,11,10,18,50,2.10
2012,11,10,18,51,2.10
2012,11,10,18,52,2.10
2012,11,10,18,53,2.10
2012,11,10,18,54,2.10
2012,11,10,18,55,2.10
2012,11,10,18,56,2.10
2012,11,10,18,57,2.10
2012,11,10,18,58,2.00
2012,11,10,18,59,2.00
2012,11,10,19,00,2.00
2012,11,10,19,01,2.00
2012,11,10,19,02,1.90
2012,11,10,19,03,1.90
2012,11,10,19,05,1.90
2012,11,10,19,06,1.90
2012,11,10,19,07,1.90
2012,11,10,19,08,1.90
2012,11,10,19,09,1.80
2012,11,10,19,11,1.80
2012,11,10,19,12,1.80
2012,11,10,19,13,1.80
2012,11,10,19,14,1.90
2012,11,10,19,15,1.90
2012,11,10,19,16,2.10
2012,11,10,19,17,2.10
2012,11,10,19,18,2.20
2012,11,10,19,19,2.30
2012,11,10,19,20,2.30
2012,11,10,19,21,2.40
2012,11,10,19,22,2.50
2012,11,10,19,23,2.60
2012,11,10,19,24,2.60
2012,11,10,19,25,2.70
2012,11,10,19,26,2.70
2012,11,10,19,27,2.70
2012,11,10,19,28,2.70
2012,11,10,19,29,2.70
2012,11,10,19,30,2.60
2012,11,10,19,31,2.60
2012,11,10,19,32,2.60
2012,11,10,19,34,2.50
2012,11,10,19,35,2.40
2012,11,10,19,36,2.30
2012,11,10,19,37,2.30
2012,11,10,19,39,2.20
2012,11,10,19,40,2.20
2012,11,10,19,41,2.10
2012,11,10,19,42,2.10
2012,11,10,19,43,2.10
2012,11,10,19,44,2.10
2012,11,10,19,45,2.00
2012,11,10,19,46,1.90
2012,11,10,19,47,1.90
2012,11,10,19,48,1.80
2012,11,10,19,49,1.80
2012,11,10,19,50,1.70
2012,11,10,19,51,1.70
2012,11,10,19,52,1.70
2012,11,10,19,53,1.60
2012,11,10,19,54,1.60
2012,11,10,19,55,1.60
2012,11,10,19,56,1.60
2012,11,10,19,57,1.60
2012,11,10,19,58,1.60
2012,11,10,19,59,1.60
2012,11,10,20,00,1.70
2012,11,10,20,01,1.80
2012,11,10,20,02,1.80
2012,11,10,20,03,1.90
2012,11,10,20,04,1.90
2012,11,10,20,05,2.10
2012,11,10,20,06,2.10
2012,11,10,20,07,2.10
2012,11,10,20,08,2.20
2012,11,10,20,09,2.20
2012,11,10,20,10,2.20
2012,11,10,20,12,2.20
2012,11,10,20,13,2.20
2012,11,10,20,14,2.20
2012,11,10,20,15,2.20
2012,11,10,20,16,2.00
2012,11,10,20,17,1.90
2012,11,10,20,18,1.90
2012,11,10,20,19,1.90
2012,11,10,20,20,1.80
2012,11,10,20,21,1.80